Time,TemperatureF,DewpointF,PressureIn,WindDirection,WindDirectionDegrees,WindSpeedMPH,WindSpeedGustMPH,Humidity,HourlyPrecipIn,Conditions,Clouds,dailyrainin,SoftwareType,DateUTC
2013-10-09 00:12:00,49.0,23.0,-100.00,WNW,290,6.0,7.0,35,-99.99,,,-99.99,,2013-10-09 06:12:00,
2013-10-09 00:52:00,47.0,22.0,-100.00,NW,325,6.0,7.0,36,-99.99,,,-99.99,,2013-10-09 06:52:00,
2013-10-09 01:12:00,46.0,22.0,-100.00,NW,325,3.0,7.0,36,-99.99,,,-99.99,,2013-10-09 07:12:00,
2013-10-09 02:12:00,48.0,22.0,-100.00,NNW,345,5.0,9.0,35,-99.99,,,-99.99,,2013-10-09 08:12:00,
2013-10-09 02:53:00,46.0,24.0,-100.00,WNW,300,7.0,9.0,42,-99.99,,,-99.99,,2013-10-09 08:53:00,
2013-10-09 03:11:00,46.0,24.0,-100.00,WNW,295,7.0,7.0,42,-99.99,,,-99.99,,2013-10-09 09:11:00,
2013-10-09 03:53:00,45.0,24.0,-100.00,WNW,290,9.0,10.0,43,-99.99,,,-99.99,,2013-10-09 09:53:00,
2013-10-09 04:13:00,45.0,24.0,-100.00,WNW,290,11.0,12.0,43,-99.99,,,-99.99,,2013-10-09 10:13:00,
2013-10-09 04:53:00,44.0,24.0,-100.00,WNW,285,8.0,9.0,45,-99.99,,,-99.99,,2013-10-09 10:53:00,
2013-10-09 05:12:00,44.0,24.0,-100.00,WNW,290,7.0,8.0,45,-99.99,,,-99.99,,2013-10-09 11:12:00,
2013-10-09 06:52:00,44.0,24.0,-100.00,WNW,300,7.0,7.0,45,-99.99,,,-99.99,,2013-10-09 12:52:00,
2013-10-09 07:52:00,42.0,23.0,-100.00,NE,40,1.0,7.0,46,-99.99,,,-99.99,,2013-10-09 13:52:00,
2013-10-09 08:11:00,43.0,24.0,-100.00,WNW,285,7.0,8.0,46,-99.99,,,-99.99,,2013-10-09 14:11:00,
2013-10-09 09:53:00,52.0,28.0,-100.00,NW,320,7.0,9.0,39,-99.99,,,-99.99,,2013-10-09 15:53:00,
2013-10-09 10:13:00,51.0,28.0,-100.00,NW,310,7.0,9.0,40,-99.99,,,-99.99,,2013-10-09 16:13:00,
2013-10-09 10:53:00,55.0,29.0,-100.00,WNW,290,4.0,4.0,36,-99.99,,,-99.99,,2013-10-09 16:53:00,
2013-10-09 11:12:00,55.0,29.0,-100.00,WNW,295,4.0,6.0,36,-99.99,,,-99.99,,2013-10-09 17:12:00,
2013-10-09 11:52:00,58.0,30.0,-100.00,NNE,15,3.0,5.0,34,-99.99,,,-99.99,,2013-10-09 17:52:00,
2013-10-09 12:12:00,58.0,30.0,-100.00,North,0,4.0,6.0,33,-99.99,,,-99.99,,2013-10-09 18:12:00,
2013-10-09 12:52:00,62.0,29.0,-100.00,NNE,15,6.0,8.0,28,-99.99,,,-99.99,,2013-10-09 18:52:00,
2013-10-09 13:11:00,62.0,28.0,-100.00,North,10,6.0,7.0,27,-99.99,,,-99.99,,2013-10-09 19:11:00,
2013-10-09 13:53:00,63.0,27.0,-100.00,East,85,3.0,10.0,25,-99.99,,,-99.99,,2013-10-09 19:53:00,
2013-10-09 14:11:00,63.0,27.0,-100.00,ENE,60,4.0,10.0,25,-99.99,,,-99.99,,2013-10-09 20:11:00,
2013-10-09 14:52:00,64.0,28.0,-100.00,SSW,205,1.0,7.0,24,-99.99,,,-99.99,,2013-10-09 20:52:00,
2013-10-09 15:11:00,65.0,28.0,-100.00,North,0,4.0,7.0,24,-99.99,,,-99.99,,2013-10-09 21:11:00,
2013-10-09 15:54:00,64.0,28.0,-100.00,ENE,70,5.0,7.0,24,-99.99,,,-99.99,,2013-10-09 21:54:00,
2013-10-09 16:13:00,64.0,28.0,-100.00,ESE,105,2.0,8.0,24,-99.99,,,-99.99,,2013-10-09 22:13:00,
2013-10-09 16:53:00,62.0,27.0,-100.00,ESE,120,4.0,6.0,26,-99.99,,,-99.99,,2013-10-09 22:53:00,
2013-10-09 17:12:00,61.0,27.0,-100.00,East,95,6.0,7.0,27,-99.99,,,-99.99,,2013-10-09 23:12:00,
2013-10-09 17:53:00,59.0,27.0,-100.00,East,90,6.0,9.0,29,-99.99,,,-99.99,,2013-10-09 23:53:00,
2013-10-09 18:12:00,58.0,27.0,-100.00,East,100,5.0,7.0,30,-99.99,,,-99.99,,2013-10-10 00:12:00,
2013-10-09 18:52:00,56.0,28.0,-100.00,SE,125,4.0,4.0,34,-99.99,,,-99.99,,2013-10-10 00:52:00,
2013-10-09 19:11:00,55.0,28.0,-100.00,SE,130,4.0,6.0,34,-99.99,,,-99.99,,2013-10-10 01:11:00,
2013-10-09 19:52:00,53.0,29.0,-100.00,ESE,115,1.0,2.0,39,-99.99,,,-99.99,,2013-10-10 01:52:00,
2013-10-09 20:12:00,53.0,29.0,-100.00,ESE,105,2.0,4.0,39,-99.99,,,-99.99,,2013-10-10 02:12:00,
2013-10-09 21:12:00,51.0,30.0,-100.00,ESE,105,3.0,4.0,45,-99.99,,,-99.99,,2013-10-10 03:12:00,
2013-10-09 21:55:00,51.0,31.0,-100.00,ESE,105,6.0,6.0,46,-99.99,,,-99.99,,2013-10-10 03:55:00,
2013-10-09 22:13:00,51.0,31.0,-100.00,ESE,110,4.0,6.0,46,-99.99,,,-99.99,,2013-10-10 04:13:00,
2013-10-09 22:54:00,49.0,30.0,-100.00,ESE,120,2.0,4.0,46,-99.99,,,-99.99,,2013-10-10 04:54:00,
2013-10-09 23:12:00,49.0,29.0,-100.00,SE,130,5.0,7.0,46,-99.99,,,-99.99,,2013-10-10 05:12:00,
2013-10-09 23:53:00,48.0,30.0,-100.00,East,95,7.0,10.0,48,-99.99,,,-99.99,,2013-10-10 05:53:00,